Voltar ao catálogo

STARLINK-32349

AtivoComunicaçõesVLEO
NORAD 61700·PAYLOAD·🇺🇸 United States

Lançado Oct 30, 2024 de Vandenberg Space Force Base

Loading…

Próximas Passagens (próximas 24 horas)

TLE

AtualizadoSource: CelesTrak SupGP

Época: Sep 14, 2026, 21:02 UTC

1 61700C 24195P   26257.87687500 -.00003021  00000+0 -89282-4 0  2575
2 61700  53.1585 355.6483 0001175  88.3681 155.7158 15.34377633    10

Acompanhe STARLINK-32349 em tempo real com AllMySat

Download on the App Store